"TOA5","AWS1","CR1000","7964","CR1000.Std.14","CPU:AWS1_114.CR1","64363","TBL110"
"TIMESTAMP","RECORD","Wind_spd_WVc(1)","Wind_spd_WVc(2)","Air_Temp_Avg","Humidity_Avg","SW_upper_Wm2_Avg","Rain_Tot","Press_Avg","Issui_Tot","Depth_cm","SR50A_Raw","Quality","Ground_Temp_Avg(1)","Ground_Temp_Avg(2)","SW_lower_Wm2_Avg","Albedo_Avg","SWC_per(1)","SWC_per(2)","Period(1)","Period(2)"
"TS","RN","","","","","","","","","","","","","","","","","","",""
"","","WVc","WVc","Avg","Avg","Avg","Tot","Avg","Tot","Smp","Smp","Smp","Avg","Avg","Avg","Avg","Smp","Smp","Smp","Smp"
"2016-08-12 00:00:00",248317,0.186,182.5,16.41,93.4,0.235817,0,865.8943,0,-3.85,3.124,227,22.28,21.97,0.7313814,1.181,45.24,52.66,32.09,33.95
"2016-08-12 00:10:00",248318,0.05,192.8,17.04,89.9,0,0,865.8901,0,-3.886,3.122,216,22.27,21.97,1.15581,0,45.24,52.66,32.09,33.95
"2016-08-12 00:20:00",248319,0.019,200.1,16.99,90.4,0,0,865.888,0,-3.336,3.119,236,22.19,21.97,0.6214847,0,45.24,52.66,32.09,33.95
"2016-08-12 00:30:00",248320,0.027,200.2,17.18,93.3,0.02751198,0,865.8796,0,-3.315,3.116,238,22.18,21.97,0.8223304,0.45,45.24,52.66,32.09,33.95
"2016-08-12 00:40:00",248321,0,0,17.36,93.7,0.0707451,0,865.8143,0,-3.322,3.117,238,22.17,21.97,0.8147513,1.157,45.24,52.66,32.09,33.95
"2016-08-12 00:50:00",248322,0.133,114.1,17.37,98.2,0,0,865.6395,0,-3.459,3.116,216,22.07,21.97,0.8185408,0,45.24,52.66,32.09,33.95
"2016-08-12 01:00:00",248323,0,0,17.61,98.2,0,0,865.5931,0,-3.563,3.117,226,22.07,21.97,0.5002194,0,45.24,52.66,32.09,33.95
"2016-08-12 01:10:00",248324,0,0,17.42,99.7,0,0,865.3846,0,-3.57,3.118,221,22.03,21.97,0.1326339,0,45.24,52.66,32.09,33.95
"2016-08-12 01:20:00",248325,0,0,17.41,99.8,0,0,865.4309,0,-3.466,3.117,225,21.98,21.92,0.3183214,0,45.24,52.66,32.09,33.95
"2016-08-12 01:30:00",248326,0,0,17.4,98,0,0,865.4225,0,-4.576,3.128,210,22.05,21.9,0.4509554,0,45.19,52.66,32.08,33.95
"2016-08-12 01:40:00",248327,0.226,197.4,17.3,99.8,0,0,865.3867,0,-4.037,3.123,238,21.97,21.89,0.3903227,0,45.19,52.66,32.08,33.95
"2016-08-12 01:50:00",248328,0,0,17.16,99.7,0,0,865.3846,0,-6.263,3.146,193,21.93,21.88,0.1667398,0,45.24,52.66,32.09,33.95
"2016-08-12 02:00:00",248329,0,0,16.92,100,0,0,865.3846,0,-5.91,3.144,198,21.94,21.88,0,0,45.19,52.66,32.08,33.95
"2016-08-12 02:10:00",248330,0.034,194.4,16.43,100,0,0,865.3846,0,-5.669,3.144,196,21.85,21.87,0,0,45.19,52.66,32.08,33.95
"2016-08-12 02:20:00",248331,0.079,194.5,16.26,100,0,0,865.3846,0,-4.954,3.138,195,21.86,21.88,0,0,45.24,52.66,32.09,33.95
"2016-08-12 02:30:00",248332,0.051,194.5,16.16,100,0,0,865.3846,0,-5.214,3.141,200,21.81,21.89,0.1553712,0,45.24,52.6,32.09,33.94
"2016-08-12 02:40:00",248333,0.261,194.8,15.92,100,0,0,865.3846,0,-5.069,3.141,196,21.74,21.89,0.1288444,0,45.24,52.66,32.09,33.95
"2016-08-12 02:50:00",248334,0.131,191.5,15.97,100,0,0,865.3846,0,-4.548,3.135,216,21.77,21.82,0.4395868,0,45.19,52.6,32.08,33.94
"2016-08-12 03:00:00",248335,0.06,191,15.85,100,0,0,865.3846,0,-4.687,3.138,210,21.71,21.8,0.2425306,0,45.19,52.66,32.08,33.95
"2016-08-12 03:10:00",248336,0.167,196.1,15.84,100,0,0,865.3383,0,-4.493,3.134,213,21.7,21.8,0.4016913,0,45.24,52.6,32.09,33.94
"2016-08-12 03:20:00",248337,0.098,195.3,15.96,100,0,0,865.3699,0,-5.02,3.141,195,21.71,21.82,0.4282182,0,45.24,52.6,32.09,33.94
"2016-08-12 03:30:00",248338,0.209,194.9,15.73,100,0,0,865.1951,0,-4.814,3.139,197,21.7,21.81,0.462324,0,45.19,52.6,32.08,33.94
"2016-08-12 03:40:00",248339,0.252,194.4,15.79,100,0,0,865.2056,0,-5.22,3.142,193,21.61,21.81,0.651801,0,45.19,52.6,32.08,33.94
"2016-08-12 03:50:00",248340,0,0,16.01,100,0,0,865.136,0,-5.498,3.144,197,21.6,21.78,0.7010651,0,45.19,52.6,32.08,33.94
"2016-08-12 04:00:00",248341,0,0,16.13,100,0.003930284,0,865.136,0,-5.978,3.147,194,21.54,21.78,0.8185408,0.064,45.24,52.66,32.09,33.95
"2016-08-12 04:10:00",248342,0,0,16.41,100,0.05502397,0,865.1445,0,-5.82,3.145,189,21.48,21.8,0.8299094,0.9,45.24,52.66,32.09,33.95
"2016-08-12 04:20:00",248343,0,0,16.58,100,0,0,865.1382,0,-5.917,3.145,181,21.51,21.79,0.693486,0,45.19,52.66,32.08,33.95
"2016-08-12 04:30:00",248344,0.028,199.2,16.76,100,0,0,865.136,0,-6.111,3.145,194,21.49,21.74,0.7616977,0,45.24,52.6,32.09,33.94
"2016-08-12 04:40:00",248345,0,0,16.91,100,0,0,865.153,0,-5.802,3.142,195,21.41,21.72,0.693486,0,45.24,52.6,32.09,33.94
"2016-08-12 04:50:00",248346,0,0,17.06,100,0.01572113,0,865.1508,0,-5.59,3.139,197,21.39,21.71,0.8715944,0.225,45.24,52.66,32.09,33.95
"2016-08-12 05:00:00",248347,0,0,17,100,0.5345185,0,865.1382,0,-5.754,3.142,197,21.4,21.72,0.7616977,1.745,45.24,52.6,32.09,33.94
"2016-08-12 05:10:00",248348,0.091,197,16.79,100,2.759059,0,865.1318,0,-5.499,3.14,197,21.37,21.73,0.9208584,0.372,45.19,52.6,32.08,33.94
"2016-08-12 05:20:00",248349,0.06,197.3,16.71,100,5.726423,0,865.2457,0,-5.196,3.138,202,21.34,21.71,1.205074,0.215,45.19,52.6,32.08,33.94
"2016-08-12 05:30:00",248350,0,0,16.66,100,16.20456,0,865.3741,0,-5.299,3.139,207,21.29,21.69,3.024054,0.187,45.19,52.6,32.08,33.94
"2016-08-12 05:40:00",248351,0,0,16.51,100,23.52275,0,865.3846,0,-5.099,3.138,210,21.31,21.71,3.914596,0.166,45.19,52.55,32.08,33.92
"2016-08-12 05:50:00",248352,0,0,16.59,100,27.79103,0,865.3973,0,-4.554,3.132,221,21.35,21.71,4.411026,0.159,45.19,52.55,32.08,33.92
"2016-08-12 06:00:00",248353,0,0,16.6,100,43.56719,0,865.4709,0,-4.675,3.132,209,21.29,21.71,6.737803,0.154,45.24,52.6,32.09,33.94
"2016-08-12 06:10:00",248354,0.061,135.9,16.92,100,48.89272,0,865.6036,0,-4.947,3.133,204,21.28,21.71,7.328972,0.15,45.24,52.6,32.09,33.94
"2016-08-12 06:20:00",248355,0.05,135.7,17.01,100,46.28695,0,865.6374,0,-3.838,3.122,245,21.23,21.69,6.408113,0.138,45.19,52.6,32.08,33.94
"2016-08-12 06:30:00",248356,0.096,136.9,17.1,99.2,52.33565,0,865.6837,0,-4.305,3.127,206,21.2,21.7,7.370657,0.14,45.19,52.55,32.08,33.92
"2016-08-12 06:40:00",248357,0.1,130.5,17.26,99.8,86.94966,0,865.8311,0,-4.237,3.124,205,21.2,21.7,12.99055,0.149,45.19,52.55,32.08,33.92
"2016-08-12 06:50:00",248358,0.222,121.8,17.56,95.6,120.5614,0,865.8691,0,-3.824,3.12,204,21.2,21.66,18.30348,0.152,45.24,52.6,32.09,33.94
"2016-08-12 07:00:00",248359,0.393,134.9,17.47,91.8,101.4445,0,865.8901,0,-4.03,3.122,205,21.2,21.61,14.40784,0.141,45.19,52.55,32.08,33.92
"2016-08-12 07:10:00",248360,0.328,119.8,17.7,89.5,80.71622,0,865.8901,0,-3.342,3.113,226,21.21,21.56,17.04157,0.209,45.19,52.6,32.08,33.94
"2016-08-12 07:20:00",248361,0.642,142.7,18.07,89.1,103.0363,0,865.8838,0,-3.383,3.112,198,21.21,21.57,21.78607,0.22,45.19,52.6,32.08,33.94
"2016-08-12 07:30:00",248362,0.457,135.8,18.34,87.3,85.12994,0,865.8901,0,-3.654,3.113,201,21.2,21.57,21.03574,0.247,45.19,52.55,32.08,33.92
"2016-08-12 07:40:00",248363,0.241,174.3,18.66,85.6,97.47103,0,865.888,0,-3.257,3.108,196,21.2,21.58,20.49384,0.211,45.19,52.55,32.08,33.92
"2016-08-12 07:50:00",248364,0.391,138.4,18.83,84.5,108.3225,0,865.8859,0,-4.171,3.115,196,21.2,21.58,23.05178,0.217,45.19,52.6,32.08,33.94
"2016-08-12 08:00:00",248365,0.21,82.8,19.05,83,482.4855,0,865.8796,0,-4.117,3.114,198,21.19,21.59,29.28936,0.062,45.24,52.6,32.09,33.94
"2016-08-12 08:10:00",248366,0.215,119.4,19.58,81.8,544.2303,0,865.888,0,-4.141,3.111,196,21.19,21.58,47.76337,0.088,45.19,52.6,32.08,33.94
"2016-08-12 08:20:00",248367,0.205,53.47,19.78,80.1,579.5989,0,865.8522,0,-4.747,3.115,192,21.17,21.54,61.1253,0.105,45.24,52.6,32.09,33.94
"2016-08-12 08:30:00",248368,0.452,17.7,20.1,77.2,614.94,0,865.6562,0,-4.97,3.116,194,21.15,21.54,71.52,0.116,45.29,52.6,32.1,33.94
"2016-08-12 08:40:00",248369,0.304,10.61,20.38,76.27,657.2535,0,865.5929,0,-4.963,3.115,174,21.15,21.52,79.45152,0.121,45.24,52.55,32.09,33.92
"2016-08-12 08:50:00",248370,0.14,88.2,21.07,74.4,433.5024,0,865.5681,0,-4.826,3.11,187,21.15,21.43,81.1227,0.231,45.24,52.55,32.09,33.92
"2016-08-12 09:00:00",248371,0.312,345.3,21.04,73.51,662.6612,0,865.4627,0,-4.74,3.109,173,21.15,21.4,75.07373,0.114,45.19,52.55,32.08,33.92
"2016-08-12 09:10:00",248372,0.329,145.1,21.16,74.23,679.0945,0,865.3313,0,-4.404,3.106,196,21.14,21.44,77.8227,0.114,45.19,52.49,32.08,33.91
"2016-08-12 09:20:00",248373,0.438,141.4,21.2,74.7,728.4501,0,865.3112,0,-4.55,3.106,183,21.13,21.44,89.29381,0.12,45.24,52.55,32.09,33.92
"2016-08-12 09:30:00",248374,0.317,184.7,21.72,72.58,802.5283,0,865.3223,0,-4.828,3.105,191,21.14,21.43,97.35847,0.121,45.14,52.49,32.06,33.91
"2016-08-12 09:40:00",248375,0.258,174.1,22.1,70.63,844.613,0,865.3008,0,-4.786,3.106,197,21.1,21.39,102.3596,0.121,45.19,52.49,32.08,33.91
"2016-08-12 09:50:00",248376,0.414,153.2,22.06,71.03,849.0693,0,865.3005,0,-4.615,3.103,196,21.06,21.33,103.6082,0.122,45.19,52.49,32.08,33.91
"2016-08-12 10:00:00",248377,0.598,79.47,22.05,70.19,873.5953,0,865.205,0,-3.017,3.089,201,21.05,21.31,111.1947,0.127,45.19,52.49,32.08,33.91
"2016-08-12 10:10:00",248378,0.557,55,21.98,70.14,883.2662,0,865.0612,0,-2.695,3.085,210,21.06,21.33,116.3541,0.132,45.14,52.49,32.06,33.91
"2016-08-12 10:20:00",248379,0.54,49.07,22.17,69.65,948.4422,0,865.0444,0,-3.304,3.089,192,21.08,21.31,129.8874,0.137,45.14,52.49,32.06,33.91
"2016-08-12 10:30:00",248380,0.521,357.8,22.55,69.3,966.1058,0,865.0424,0,-3.503,3.09,191,21.12,21.27,136.0811,0.141,45.19,52.44,32.08,33.89
"2016-08-12 10:40:00",248381,0.366,19.05,22.9,68.9,1059.373,0,864.9674,0,-3.485,3.088,193,21.13,21.28,154.6548,0.146,45.14,52.49,32.06,33.91
"2016-08-12 10:50:00",248382,0.378,69.26,23.52,66.94,1033.001,0,864.7991,0,-2.797,3.076,194,21.2,21.27,149.7041,0.144,45.14,52.44,32.06,33.89
"2016-08-12 11:00:00",248383,0.377,278.1,23.45,65.76,908.7688,0,864.7893,0,-2.42,3.076,236,21.29,21.26,132.9082,0.142,45.14,52.49,32.06,33.91
"2016-08-12 11:10:00",248384,0.41,35.55,22.6,66.66,486.3053,0,864.7933,0,-3.555,3.091,189,21.35,21.22,61.05352,0.109,45.08,52.49,32.05,33.91
"2016-08-12 11:20:00",248385,0.384,78.25,22.73,67.1,844.4133,0,864.7373,0,-3.821,3.089,197,21.45,21.15,128.0781,0.145,45.08,52.49,32.05,33.91
"2016-08-12 11:30:00",248386,0.276,12.78,23.9,64.09,1041.864,0,864.5492,0,-3.936,3.086,186,21.52,21.21,160.5627,0.154,45.08,52.44,32.05,33.89
"2016-08-12 11:40:00",248387,0.341,78.35,24.33,63.13,1032.144,0,864.4407,0,-2.435,3.068,211,21.61,21.22,157.0528,0.152,45.03,52.44,32.04,33.89
"2016-08-12 11:50:00",248388,0.49,358.2,24.18,62.19,842.3131,0,864.3043,0,-4.235,3.09,205,21.72,21.22,122.0341,0.129,45.03,52.44,32.04,33.89
"2016-08-12 12:00:00",248389,0.263,76.43,23.59,62.7,617.983,0,864.2869,0,-2.89,3.078,201,21.79,21.15,86.84118,0.095,44.98,52.44,32.02,33.89
"2016-08-12 12:10:00",248390,0.397,350.5,24.2,59.98,1051.078,0,864.2839,0,-2.36,3.07,288,21.89,21.14,165.4594,0.157,44.98,52.44,32.02,33.89
"2016-08-12 12:20:00",248391,0.261,322.6,24.53,57.01,976.4906,0,864.2809,0,-4.775,3.092,196,21.99,21.14,153.4664,0.155,44.98,52.38,32.02,33.88
"2016-08-12 12:30:00",248392,0.516,174.3,24.48,56.11,992.3454,0,864.2773,0,-3.174,3.076,201,22.07,21.14,160.5255,0.162,44.93,52.38,32.01,33.88
"2016-08-12 12:40:00",248393,0.388,150.7,24.99,57.29,996.8694,0,864.0623,0,-3.413,3.076,178,22.16,21.15,160.1669,0.161,44.93,52.38,32.01,33.88
"2016-08-12 12:50:00",248394,0.33,204.5,25.17,53.47,984.5045,0,863.962,0,-4.316,3.084,186,22.25,21.17,157.4693,0.16,44.87,52.38,32,33.88
"2016-08-12 13:00:00",248395,0.426,322.1,25.05,52.41,967.0876,0,863.7831,0,-3.048,3.073,190,22.36,21.17,154.781,0.16,44.87,52.38,32,33.88
"2016-08-12 13:10:00",248396,0.537,318.1,25.02,52.98,948.8931,0,863.716,0,-4.476,3.088,181,22.47,21.15,150.985,0.159,44.87,52.32,32,33.87
"2016-08-12 13:20:00",248397,0.595,354.8,25.06,52.3,953.7432,0,863.6478,0,-2.75,3.069,221,22.57,21.16,152.5039,0.16,44.82,52.32,31.98,33.87
"2016-08-12 13:30:00",248398,0.527,283.8,25.08,53.74,895.4619,0,863.5692,0,-3.261,3.075,192,22.68,21.16,141.8877,0.158,44.82,52.32,31.98,33.87
"2016-08-12 13:40:00",248399,0.467,339.8,25.16,52.6,925.6729,0,863.5929,0,-3.886,3.081,215,22.8,21.17,144.8049,0.156,44.77,52.32,31.97,33.87
"2016-08-12 13:50:00",248400,0.389,237.1,24.67,55.64,539.8449,0,863.6396,0,-3.261,3.075,194,22.88,21.18,75.89112,0.116,44.77,52.32,31.97,33.87
"2016-08-12 14:00:00",248401,0.326,286.6,25.27,54.96,994.7882,0,863.6172,0,-2.755,3.067,195,22.98,21.16,152.9134,0.154,44.77,52.27,31.97,33.85
"2016-08-12 14:10:00",248402,0.172,268.5,25.45,56.91,750.064,0,863.5591,0,-4.429,3.083,193,23.1,21.21,104.1324,0.132,44.72,52.27,31.96,33.85
"2016-08-12 14:20:00",248403,0.305,313.2,25.28,57.67,658.1622,0,863.5353,0,-3.813,3.083,184,23.16,21.24,84.37332,0.121,44.72,52.27,31.96,33.85
"2016-08-12 14:30:00",248404,0.22,316.6,23.83,64.5,239.493,0,863.4912,0,-5.426,3.103,196,23.28,21.23,25.71132,0.107,44.67,52.27,31.94,33.85
"2016-08-12 14:40:00",248405,0.097,240,23.6,64.63,283.5594,0,863.544,0,-4.273,3.091,208,23.35,21.24,36.40149,0.128,44.67,52.27,31.94,33.85
"2016-08-12 14:50:00",248406,0.155,55.63,23.71,65.24,292.7401,0,863.5448,0,-3.752,3.086,194,23.45,21.25,36.60279,0.125,44.67,52.27,31.94,33.85
"2016-08-12 15:00:00",248407,0.142,70.92,23.81,64.25,441.059,0,863.5559,0,-3.653,3.083,192,23.52,21.25,49.44577,0.118,44.67,52.21,31.94,33.84
"2016-08-12 15:10:00",248408,0.12,203,24.52,62.24,357.4079,0,863.4532,0,-2.983,3.075,200,23.6,21.29,47.22901,0.137,44.67,52.21,31.94,33.84
"2016-08-12 15:20:00",248409,0.205,167.2,24.55,61.32,261.297,0,863.4345,0,-3.424,3.079,203,23.64,21.33,37.56572,0.143,44.61,52.27,31.93,33.85
"2016-08-12 15:30:00",248410,0.187,11.28,24.23,62.54,244.0627,0,863.4994,0,-3.549,3.082,197,23.72,21.32,33.4048,0.137,44.56,52.21,31.91,33.84
"2016-08-12 15:40:00",248411,0.388,308,23.53,67.88,211.575,0,863.4867,0,-3.366,3.085,188,23.76,21.32,28.6603,0.136,44.56,52.21,31.91,33.84
"2016-08-12 15:50:00",248412,0.259,302.3,23.12,70.55,195.8578,0,863.5536,0,-3.389,3.085,193,23.84,21.33,25.46193,0.129,44.56,52.21,31.91,33.84
"2016-08-12 16:00:00",248413,0.072,52.81,23.34,70.55,162.7766,0,863.5742,0,-3.285,3.084,196,23.87,21.38,21.26311,0.129,44.56,52.21,31.91,33.84
"2016-08-12 16:10:00",248414,0.024,275.6,23.16,70.21,103.7123,0,863.6056,0,-4.001,3.092,193,23.9,21.42,12.23643,0.118,44.51,52.21,31.9,33.84
"2016-08-12 16:20:00",248415,0.171,112.1,22.98,71.63,90.46333,0,863.6225,0,-3.291,3.087,192,23.94,21.48,10.50461,0.116,44.51,52.16,31.9,33.83
"2016-08-12 16:30:00",248416,0.234,88.1,22.68,72.36,72.3408,0,863.6075,0,-3.716,3.092,195,23.95,21.47,7.628346,0.105,44.46,52.16,31.89,33.83
"2016-08-12 16:40:00",248417,0.073,108.9,22.51,73.18,43.44928,0,863.6077,0,-3.542,3.091,192,24.02,21.48,4.736926,0.109,44.46,52.16,31.89,33.83
"2016-08-12 16:50:00",248418,0.165,64.89,22.39,73.77,35.84418,0,863.6461,0,-3.655,3.093,178,24.07,21.53,4.285971,0.119,44.51,52.16,31.9,33.83
"2016-08-12 17:00:00",248419,0.239,101.8,22.23,75.49,44.13708,0,863.6926,0,-3.631,3.093,192,24.11,21.57,6.040528,0.137,44.46,52.16,31.89,33.83
"2016-08-12 17:10:00",248420,0.332,75.65,22.22,74.51,51.62427,0,863.852,0,-3.943,3.096,187,24.1,21.59,7.939088,0.154,44.46,52.16,31.89,33.83
"2016-08-12 17:20:00",248421,0.125,110.3,22.35,74.57,66.60651,0,863.8637,0,-3.886,3.095,195,24.1,21.57,10.42503,0.156,44.46,52.16,31.89,33.83
"2016-08-12 17:30:00",248422,0.107,44.71,22.18,75.67,62.01594,0,863.863,0,-4.112,3.099,182,24.11,21.54,9.273006,0.149,44.41,52.16,31.87,33.83
"2016-08-12 17:40:00",248423,0.025,344.1,21.9,76.76,57.58258,0,863.8669,0,-4.112,3.099,176,24.11,21.56,8.227094,0.143,44.41,52.16,31.87,33.83
"2016-08-12 17:50:00",248424,0.024,40.1,21.81,77.26,43.27242,0,863.8679,0,-4.13,3.101,181,24.08,21.69,5.763892,0.132,44.41,52.16,31.87,33.83
"2016-08-12 18:00:00",248425,0.042,32.87,21.52,79.17,41.57454,0,863.8828,0,-3.676,3.098,190,23.98,21.68,5.688101,0.136,44.41,52.1,31.87,33.81
"2016-08-12 18:10:00",248426,0.007,24.08,21.43,80.8,20.37459,0,864.0576,0,-3.907,3.1,190,23.96,21.64,1.746978,0.08,44.41,52.1,31.87,33.81
"2016-08-12 18:20:00",248427,0.008,325.1,21.17,81.6,10.31699,0,864.1208,0,-4.028,3.103,181,23.99,21.64,0.3145319,0.03,44.35,52.16,31.86,33.83
"2016-08-12 18:30:00",248428,0,0,20.95,82.8,3.222832,0,864.1314,0,-3.701,3.101,191,24.02,21.73,0,0,44.41,52.1,31.87,33.81
"2016-08-12 18:40:00",248429,0,0,20.87,84.6,1.379529,0,864.2262,0,-3.885,3.103,186,24.02,21.8,0,0,44.41,52.1,31.87,33.81
"2016-08-12 18:50:00",248430,0.049,64.8,20.63,85.8,0,0,864.3673,0,-3.742,3.103,180,23.95,21.8,0,0,44.35,52.1,31.86,33.81
"2016-08-12 19:00:00",248431,0.031,54.59,20.51,88.3,0,0,864.3737,0,-3.535,3.101,194,23.92,21.79,0,0,44.35,52.1,31.86,33.81
"2016-08-12 19:10:00",248432,0.013,26.51,20.43,89.8,0,0,864.4158,0,-3.774,3.104,189,23.94,21.77,0,0,44.35,52.16,31.86,33.83
"2016-08-12 19:20:00",248433,0.169,83.2,20.37,91.2,0,0,864.618,0,-3.83,3.105,184,23.95,21.89,0,0,44.35,52.1,31.86,33.81
"2016-08-12 19:30:00",248434,0.071,49.04,20.23,93.1,0,0,864.6263,0,-3.806,3.105,189,23.85,21.89,0.007579082,0,44.35,52.1,31.86,33.81
"2016-08-12 19:40:00",248435,0,0,20.23,93.8,0,0,864.6263,0,-4.141,3.108,181,23.87,21.88,0,0,44.3,52.1,31.85,33.81
"2016-08-12 19:50:00",248436,0.009,272.1,20.13,95.2,0,0,864.7233,0,-4.125,3.109,189,23.88,21.87,0,0,44.35,52.16,31.86,33.83
"2016-08-12 20:00:00",248437,0,0,20.08,96.7,0,0,864.8791,0,-4.181,3.11,188,23.75,21.92,0,0,44.3,52.1,31.85,33.81
"2016-08-12 20:10:00",248438,0.002,281.7,20.03,96.9,0,0,864.9592,0,-4.181,3.11,185,23.76,21.96,0,0,44.3,52.05,31.85,33.8
"2016-08-12 20:20:00",248439,0.003,108.9,19.99,97.6,0,0,865.1318,0,-4.237,3.111,188,23.76,21.98,0,0,44.3,52.1,31.85,33.81
"2016-08-12 20:30:00",248440,0.01,58.44,19.84,99.6,0,0,865.1255,0,-4.316,3.112,188,23.68,21.98,0,0,44.3,52.1,31.85,33.81
"2016-08-12 20:40:00",248441,0.021,195.6,19.69,99.9,0,0,864.936,0,-4.292,3.112,185,23.69,21.98,0,0,44.3,52.1,31.85,33.81
"2016-08-12 20:50:00",248442,0,0,19.69,100,0,0,864.9149,0,-4.3,3.113,194,23.72,21.98,0,0,44.3,52.1,31.85,33.81
"2016-08-12 21:00:00",248443,0.163,124.8,19.5,100,0,0,864.8834,0,-4.212,3.114,188,23.64,21.99,0,0,44.3,52.1,31.85,33.81
"2016-08-12 21:10:00",248444,0.086,105.7,19.29,100,0,0,864.9676,0,-4.26,3.114,193,23.64,22,0.0189477,0,44.25,52.05,31.83,33.8
"2016-08-12 21:20:00",248445,0.252,69.52,19.25,100,0,0,865.0813,0,-4.268,3.115,189,23.63,21.98,0,0,44.3,52.1,31.85,33.81
"2016-08-12 21:30:00",248446,0.021,90.8,19.24,100,0,0,864.9929,0,-4.109,3.113,189,23.55,21.99,0.04547449,0,44.25,52.1,31.83,33.81
"2016-08-12 21:40:00",248447,0,0,19.31,100,0,0,864.9991,0,-4.109,3.113,185,23.54,22.04,0.04926403,0,44.25,52.1,31.83,33.81
"2016-08-12 21:50:00",248448,0,0,19.28,100,0,0,865.1024,0,-4.038,3.113,176,23.54,22.06,0.0833699,0,44.25,52.1,31.83,33.81
"2016-08-12 22:00:00",248449,0,0,19.23,100,0,0,864.9612,0,-4.141,3.114,189,23.5,22.06,0,0,44.25,52.1,31.83,33.81
"2016-08-12 22:10:00",248450,0.005,64.61,19.23,100,0,0,864.9212,0,-4.291,3.115,189,23.42,22.06,0,0,44.3,52.05,31.85,33.8
"2016-08-12 22:20:00",248451,0,0,19.06,100,0,0,864.8791,0,-4.228,3.116,193,23.45,22.04,0,0,44.25,52.1,31.83,33.81
"2016-08-12 22:30:00",248452,0.032,84.5,18.98,100,0,0,864.8581,0,-4.322,3.116,189,23.36,22.03,0,0,44.25,52.05,31.83,33.8
"2016-08-12 22:40:00",248453,0,0,18.94,100,0,0,864.8791,0,-4.18,3.116,194,23.35,22.04,0,0,44.25,52.05,31.83,33.8
"2016-08-12 22:50:00",248454,0.02,114.4,18.88,100,0,0,864.7843,0,-4.593,3.12,192,23.37,22.08,0,0,44.25,52.05,31.83,33.8
"2016-08-12 23:00:00",248455,0,0,18.81,100,0,0,864.6917,0,-4.927,3.123,188,23.36,22.12,0,0,44.25,52.05,31.83,33.8
"2016-08-12 23:10:00",248456,0.225,68.69,18.8,100,0,0,864.6369,0,-4.481,3.121,189,23.3,22.15,0.07200127,0,44.2,52.05,31.82,33.8
"2016-08-12 23:20:00",248457,0.176,56.71,18.5,100,0,0,864.6369,0,-4.894,3.125,172,23.28,22.17,0,0,44.25,52.05,31.83,33.8
"2016-08-12 23:30:00",248458,0,0,18.62,100,0,0,864.6263,0,-4.911,3.124,184,23.28,22.18,0.1440025,0,44.25,52.05,31.83,33.8
"2016-08-12 23:40:00",248459,0.051,33.19,18.68,100,0,0,864.6263,0,-4.942,3.125,185,23.22,22.18,0.1212653,0,44.25,52.05,31.83,33.8
"2016-08-12 23:50:00",248460,0,0,18.53,100,0,0,864.6032,0,-5.228,3.128,177,23.19,22.17,0,0,44.2,52.05,31.82,33.8
